Simultaneous Nadir Overpasses (SNOs) Predictions

Prediction of SNOs between AURA and NPP Satellite Orbit:

Table of predicted SNOs for the next 14.0 days since TLE Epoch: 6/18/2016
Index Date (AURA) Time (AURA) Lat,Lon (AURA) SZA (AURA ) Date (NPP) Time (NPP) Lat,Lon (NPP) SZA (NPP ) Distance(km) Time Diff (sec)
1 06/20/2016 02:51:58 -79.30,-147.64 110.26 06/20/2016 02:51:52 -79.30,-147.61 110.26 0.51 6
2 06/20/2016 03:41:18 79.53, 21.51 69.42 06/20/2016 03:42:30 79.52, 21.43 69.38 1.89 72
3 06/22/2016 18:19:02 79.16, 159.71 69.99 06/22/2016 18:18:05 79.17, 159.84 70.00 2.83 57
4 06/22/2016 19:08:25 -79.33, -31.59 110.26 06/22/2016 19:08:46 -79.32, -31.68 110.26 2.04 21
5 06/25/2016 10:35:28 79.21, -84.06 69.99 06/25/2016 10:34:58 79.22, -84.01 70.00 1.03 30
6 06/25/2016 11:24:48 -79.50, 85.45 110.43 06/25/2016 11:25:35 -79.51, 85.57 110.49 2.70 47
7 06/28/2016 02:51:52 79.30, 32.38 69.99 06/28/2016 02:51:49 79.30, 32.39 70.00 0.17 3
8 06/28/2016 03:41:00 -80.02,-154.74 111.11 06/28/2016 03:42:14 -79.96,-154.55 111.18 7.23 74
9 06/30/2016 18:18:57 -79.17, -20.24 109.64 06/30/2016 18:18:03 -79.17, -20.11 109.62 2.86 54




NCC Satellite Simultaneous Nadir Overpasses (SNOs) Prediction Service
